www.pogodaiklimat.ru

Погода и климат >> Архив погоды >> Австрия >> Рец


ПОГОДА в Реце

  • Прогноз погоды в Реце
  • Монитор погоды в Реце

АРХИВ ПОГОДЫ в Реце

Время (UTC), дата Ветер
(напр.,м/с)
 
Видим.   Явления Облачность Т
(С)
Тd
(С)
f
(%)
Тe
(С)
Тes
(С)
Комфортность P
(гПа)
Po
(гПа)
Тmin
(С)
Tmax
(С)
R
(мм)
R24
(мм)
S
(см)
19 12.07 ЮЗ 2 н/о осадки н/о +16.1 +14.9 93 +16 +16 1010.6 973.5 2
20 12.07 СЗ 1 н/о ливневой дождь н/о +15.7 +14.3 91 +16 +16 1010.9 973.7 3
21 12.07 З 3 н/о {ливн. осадки} н/о +14.7 +14.1 96 +14 +14 1011.3 974.0 4
22 12.07 ЮЗ 3 н/о н/о +14.0 +13.1 94 +13 +13 1011.2 973.8
23 12.07 ЮЗ 2 н/о н/о +13.9 +12.3 90 +13 +13 1010.9 973.5
00 13.07 З 4 н/о {ливн. осадки} н/о +14.9 +11.6 81 +14 +14 1010.4 973.1 4
01 13.07 З 3 н/о н/о +14.4 +12.1 86 +13 +13 1010.0 972.6
02 13.07 ЮЗ 3 н/о н/о +13.8 +12.5 92 +13 +13 1009.8 972.4
03 13.07 ЮЗ 5 н/о осадки н/о +13.8 +12.9 94 +12 +12 1009.9 972.5 0.0
04 13.07 ЮЗ 3 н/о н/о +13.7 +13.5 99 +12 +12 1010.3 972.9 6
05 13.07 ЮЗ 2 4500 м дождь 10/10 540 м
[Cu Sc]
+13.6 +13.6 100 +13 +13 1010.6 973.1 9
06 13.07 З 3 6000 м слаб. дождь 10/10 500 м
[Frnb]
+13.9 +13.7 99 +13 +13 1010.7 973.3 +13.1 +17.2 20
07 13.07 З 3 н/о осадки н/о +14.5 +14.2 98 +13 +13 1010.9 973.6 1
08 13.07 З 3 н/о осадки н/о +15.1 +14.1 94 +14 +14 1011.0 973.7 0.4
09 13.07 З 4 н/о осадки н/о +15.7 +14.1 90 +15 +15 1011.2 974.0 2
10 13.07 З 3 н/о в посл. час осадки н/о +16.7 +14.5 87 +16 +16 1011.1 974.0 0.0
11 13.07 З 6 н/о в посл. час осадки н/о +17.0 +13.8 81 +16 +16 1011.0 974.0 0.1
12 13.07 З 6 20 км {дождь} 8/8 660 м
[Cu Sc]
+18.6 +14.2 76 +19 +20 1010.5 973.7 2
14 13.07 З 7 н/о н/о +20.1 +13.4 65 +22 +22 комфорт 1010.0 973.4
15 13.07 З 4 н/о осадки н/о +16.6 +14.7 89 +16 +16 1011.1 974.0 1
17 13.07 СЗ 4 н/о н/о +18.2 +14.5 79 +18 +18 1010.7 973.8 0.0
18 13.07 З 3 17 км {ливн. осадки} 8/8 750 м
[Cu Sc]
+17.5 +14.3 81 +18 +18 1011.5 974.5 +13.8 +21.1 4
19 13.07 З 5 н/о н/о +16.4 +13.6 84 +15 +15 1011.7 974.6
20 13.07 З 4 н/о в посл. час осадки н/о +15.9 +13.9 88 +15 +15 1011.7 974.5 0.0
21 13.07 З 6 н/о {осадки} н/о +16.1 +13.8 86 +15 +15 1012.0 974.8 0.0
22 13.07 СЗ 6 н/о н/о +15.9 +13.7 87 +15 +15 1012.3 975.1
23 13.07 СЗ 7 н/о н/о +15.5 +13.5 88 +14 +14 1012.6 975.3
00 14.07 СЗ 6 н/о {осадки} н/о +14.8 +13.2 90 +13 +13 1012.7 975.3 0.0
01 14.07 СЗ 7 н/о н/о +15.0 +13.0 88 +13 +13 1012.7 975.3
02 14.07 СЗ 7 н/о н/о +14.7 +12.5 87 +13 +13 1012.7 975.3
03 14.07 СЗ 7 н/о н/о +14.5 +12.4 87 +12 +12 1012.7 975.3
04 14.07 СЗ 7 н/о н/о +14.3 +12.2 87 +12 +12 1012.9 975.4
05 14.07 СЗ 6 18 км 1/1 660 м
[Cu hum]
+15.1 +12.2 83 +13 +14 1012.9 975.5
06 14.07 СЗ 5 18 км 3/3 700 м
[Cu hum]
+16.4 +12.4 77 +15 +17 1013.1 975.9 +14.3 +17.7 0.0
07 14.07 СЗ 5 н/о н/о +17.6 +12.7 73 +17 +17 1013.5 976.4
08 14.07 С 3 н/о н/о +19.1 +12.6 66 +20 +20 1013.5 976.6
09 14.07 С 5 н/о н/о +20.5 +12.3 59 +22 +22 комфорт 1013.1 976.4
10 14.07 СЗ 4 н/о н/о +20.4 +12.3 60 +23 +23 комфорт 1012.9 976.2
11 14.07 СЗ 4
{13}
н/о н/о +21.9 +13.8 60 +25 +25 комфорт 1012.3 975.8
12 14.07 СЗ 4
{13}
н/о н/о +22.0 +11.9 53 +24 +24 комфорт 1011.9 975.4
13 14.07 СЗ 2 н/о в посл. час осадки н/о +18.2 +15.0 82 +19 +19 1012.4 975.5 5
14 14.07 СЗ 3 н/о в посл. час осадки н/о +21.5 +12.0 55 +24 +24 комфорт 1011.8 975.3 0.1
15 14.07 С 4 н/о ливневой дождь н/о +20.3 +11.7 58 +22 +22 комфорт 1012.2 975.5 6
16 14.07 ЮЗ 3 н/о в посл. час осадки н/о +16.6 +14.5 87 +16 +16 1013.1 975.9 2
17 14.07 З 2 н/о н/о +18.1 +14.4 79 +19 +19 1012.4 975.5
18 14.07 СЗ 3
{13}
25 км {гроза, ливн. осадки} 4/4 800 м
[Cu Sc]
+18.5 +11.8 65 +19 +19 1012.8 975.9 +16.1 +22.5 7
19 14.07 З 3 н/о н/о +16.6 +12.1 75 +16 +16 1013.6 976.4
20 14.07 СЗ 5 н/о н/о +16.6 +12.1 75 +16 +16 1013.9 976.7
21 14.07 СЗ 6 н/о н/о +16.1 +12.7 80 +15 +15 1014.2 976.9 0.0
22 14.07 СЗ 5 н/о н/о +16.1 +11.9 76 +15 +15 1014.3 977.0 0.0
23 14.07 СЗ 4 н/о в посл. час осадки н/о +15.6 +11.9 79 +15 +15 1014.3 976.9 0.0
00 15.07 СЗ 3 н/о {осадки} н/о +15.4 +11.4 77 +15 +15 1014.2 976.8 0.0
01 15.07 СЗ 4 н/о н/о +14.7 +11.4 81 +13 +13 1014.2 976.7
02 15.07 СЗ 4 н/о н/о +14.0 +11.0 82 +13 +13 1014.1 976.5
03 15.07 С 4 н/о н/о +13.6 +11.0 84 +12 +12 1014.1 976.5
04 15.07 В 2 н/о н/о +13.7 +10.9 83 +13 +13 1014.4 976.8
05 15.07 С 4 5000 м 1/1 660 м
[Cu hum]
+14.5 +11.4 82 +13 +14 1014.6 977.1
06 15.07 С 4 8000 м {ливн. осадки} 1/1 660 м
[Cu hum]
+16.0 +11.9 77 +15 +18 1015.0 977.7 +13.1 +18.5 0.0
07 15.07 С 4 н/о н/о +16.8 +11.9 73 +16 +16 1015.2 978.0
08 15.07 ЮЗ 2 н/о н/о +18.3 +11.7 65 +19 +19 1015.2 978.1
09 15.07 Ю 2 н/о н/о +19.5 +12.2 63 +21 +21 комфорт 1014.8 977.9
10 15.07 З 1 н/о н/о +19.8 +11.8 60 +22 +22 комфорт 1014.4 977.6
11 15.07 СЗ 3 н/о н/о +21.4 +11.3 53 +23 +23 комфорт 1014.1 977.5
12 15.07 С 5 35 км 8/8 900 м
[Cu Sc]
+21.1 +10.9 52 +23 +24 комфорт 1014.1 977.4
13 15.07 С 3 н/о н/о +22.5 +11.4 49 +25 +25 комфорт 1013.4 976.9
14 15.07 СЗ 4 н/о н/о +22.5 +11.6 50 +25 +25 комфорт 1013.2 976.7
15 15.07 З 3 н/о н/о +23.5 +11.3 46 +25 +25 комфорт 1012.7 976.4
16 15.07 С 3 н/о н/о +23.2 +10.0 43 +25 +25 комфорт 1012.6 976.2
17 15.07 СВ 4 н/о н/о +21.3 +12.0 55 +23 +23 комфорт 1013.0 976.4
18 15.07 СВ 3 27 км в посл. час ливневой дождь 8/8 700 м
[Cu Sc]
+20.4 +12.9 62 +23 +23 комфорт 1013.3 976.6 +15.8 +23.7 0.0
19 15.07 С 2 н/о н/о +18.1 +12.9 72 +19 +19 1013.8 976.8
20 15.07 С 1 н/о н/о +17.7 +11.4 67 +19 +19 1014.4 977.3
21 15.07 СЗ 2 н/о н/о +17.3 +11.2 67 +18 +18 1014.5 977.3
22 15.07 С 2 н/о н/о +17.4 +11.1 66 +18 +18 1014.6 977.4
23 15.07 С 3 н/о н/о +17.5 +11.1 66 +18 +18 1014.4 977.3
00 16.07 СЗ 3 н/о н/о +15.9 +11.6 76 +15 +15 1014.6 977.3
01 16.07 СЗ 4 н/о н/о +15.3 +11.4 78 +14 +14 1014.5 977.1
02 16.07 С 4 н/о н/о +15.3 +11.4 78 +14 +14 1014.4 977.0
03 16.07 С 5 н/о н/о +14.3 +10.8 79 +13 +13 1014.9 977.3
04 16.07 СЗ 3 н/о н/о +13.5 +10.6 83 +12 +12 1015.1 977.4
05 16.07 С 5 10 км 1/0
[Ci fib]
+14.8 +11.1 78 +13 +14 1015.1 977.6
06 16.07 штиль 0 10 км 1/0
[Ci fib]
+15.9 +11.6 76 +16 +21 1014.8 977.5 +13.4 +20.4
07 16.07 В 2 н/о н/о +17.7 +12.1 70 +18 +18 1014.5 977.4 0.0
08 16.07 ЮЗ 1 н/о н/о +19.1 +12.8 67 +21 +21 комфорт 1013.9 977.0
09 16.07 ЮЗ 4 н/о н/о +20.3 +12.0 59 +22 +22 комфорт 1013.3 976.6 0.0
10 16.07 З 3 н/о н/о +21.6 +12.2 55 +24 +24 комфорт 1012.8 976.2
11 16.07 З 4 н/о н/о +23.3 +10.8 45 +25 +25 комфорт 1012.1 975.8
12 16.07 СЗ 5 30 км 4/4 1000 м
[Cu hum]
+24.1 +10.6 43 +25 +31 комфорт 1011.7 975.5 0.0
13 16.07 З 5 н/о н/о +24.8 +10.6 41 +26 +26 жарко 1011.7 975.5
14 16.07 З 5 н/о н/о +25.4 +9.5 37 +26 +26 жарко 1011.3 975.2
15 16.07 З 7 н/о н/о +25.5 +5.7 28 +25 +25 комфорт 1011.3 975.2
16 16.07 СЗ 4 н/о н/о +24.9 +10.8 41 +26 +26 жарко 1011.2 975.1 0.0
17 16.07 СЗ 4 н/о н/о +23.3 +11.8 48 +26 +26 жарко 1011.6 975.3
18 16.07 СЗ 3 23 км ясно +22.6 +11.1 48 +25 +25 комфорт 1011.9 975.5 +15.6 +26.0 0.0
19 16.07 С 6 н/о н/о +20.3 +11.1 55 +22 +22 комфорт 1012.4 975.7
20 16.07 С 4 н/о н/о +18.6 +10.9 61 +19 +19 1013.4 976.4
21 16.07 С 4 н/о н/о +17.3 +10.7 65 +17 +17 1014.0 976.8
22 16.07 С 4 н/о н/о +16.5 +10.3 67 +16 +16 1014.4 977.1
23 16.07 С 4 н/о н/о +15.6 +10.0 69 +15 +15 1014.9 977.5
00 17.07 С 3 н/о н/о +14.5 +9.8 73 +14 +14 1015.4 977.8
01 17.07 СЗ 1 н/о н/о +13.5 +9.6 77 +14 +14 1015.3 977.6
02 17.07 СЗ 3 н/о н/о +14.5 +9.4 71 +14 +14 1014.6 977.1
03 17.07 СЗ 3 н/о н/о +13.6 +9.5 76 +12 +12 1014.7 977.0
04 17.07 СЗ 3 н/о н/о +13.6 +9.6 77 +12 +12 1014.8 977.1
05 17.07 СЗ 3 8000 м 1/0
[Ci fib]
+15.1 +10.2 73 +14 +16 1014.8 977.3
06 17.07 СЗ 2 12 км 1/0
[Ci fib]
+16.6 +10.7 68 +17 +21 1014.7 977.4 +12.9 +22.7
07 17.07 С 2 н/о н/о +17.7 +11.6 67 +18 +18 1014.4 977.3
08 17.07 СЗ 2 н/о н/о +19.0 +11.4 61 +20 +20 1013.8 976.9
09 17.07 З 3 н/о н/о +20.9 +12.2 57 +24 +24 комфорт 1013.3 976.6
10 17.07 З 3 н/о н/о +21.7 +11.5 52 +24 +24 комфорт 1012.8 976.2
11 17.07 СЗ 2 н/о н/о +23.2 +11.6 48 +26 +26 жарко 1012.0 975.7
12 17.07 СВ 1 25 км 5/5 1000 м
[Cu Sc]
+23.7 +11.7 47 +25 +35 комфорт 1011.6 975.3
13 17.07 С 2 н/о н/о +25.5 +12.3 44 +27 +27 жарко 1010.8 974.8
14 17.07 С 3 н/о н/о +25.3 +11.3 42 +27 +27 жарко 1010.7 974.6
15 17.07 С 2 н/о н/о +26.2 +12.2 42 +28 +28 жарко 1010.3 974.4
16 17.07 С 2 н/о н/о +26.5 +12.0 40 +28 +28 жарко 1009.9 974.0
17 17.07 В 4 н/о н/о +23.8 +12.4 49 +26 +26 жарко 1009.9 973.7
18 17.07 В 5 23 км 9/9 750 м
[Cu Sc]
+22.6 +12.5 53 +25 +25 комфорт 1010.5 974.1 +16.4 +26.5
19 17.07 С 4 н/о н/о +21.0 +12.1 57 +24 +24 комфорт 1011.1 974.5 0.0
20 17.07 С 6 н/о н/о +20.2 +12.1 60 +22 +22 комфорт 1011.8 975.1 0.0
21 17.07 С 4 н/о н/о +19.1 +11.9 63 +20 +20 1011.6 974.8 0.0
22 17.07 С 5 н/о н/о +19.2 +11.0 59 +20 +20 1011.9 975.1
23 17.07 СЗ 3 н/о осадки н/о +17.6 +13.0 74 +18 +18 1012.7 975.7 0.4
00 18.07 ЮЗ 2 н/о {осадки} н/о +14.7 +14.0 96 +14 +14 1013.0 975.6 7
01 18.07 СВ 1 н/о н/о +14.7 +13.5 93 +15 +15 1012.5 975.1
02 18.07 С 3 н/о н/о +14.2 +13.4 95 +13 +13 1012.1 974.7
03 18.07 СЗ 3 н/о н/о +14.7 +13.2 91 +14 +14 1012.1 974.7
04 18.07 С 2 н/о н/о +14.6 +12.0 84 +14 +14 1012.2 974.8
05 18.07 СЗ 2 6000 м 3/3 600 м
[Cu hum]
+14.8 +12.4 86 +14 +16 1012.6 975.2
06 18.07 С 4 8000 м {гроза, ливн. осадки} 6/6 660 м
[Cu Sc]
+16.9 +13.4 80 +16 +18 1012.6 975.5 +14.1 +22.9 7
07 18.07 СВ 2 н/о н/о +17.5 +10.5 63 +18 +18 1012.6 975.5
08 18.07 СВ 2 н/о н/о +19.2 +11.1 59 +21 +21 комфорт 1012.7 975.8
09 18.07 В 2 н/о н/о +20.1 +12.0 60 +22 +22 комфорт 1012.7 976.0
10 18.07 В 2 н/о н/о +21.9 +13.2 58 +25 +25 комфорт 1012.4 975.9
11 18.07 В 1 н/о н/о +23.4 +13.1 52 +26 +26 жарко 1011.9 975.6
12 18.07 ЮВ 2 25 км 3/3 960 м
[Cu med, cong]
+24.2 +13.1 50 +26 +38 жарко 1011.5 975.3
13 18.07 ЮВ 3 н/о н/о +24.6 +12.5 47 +26 +26 жарко 1011.4 975.3
14 18.07 Ю 3 н/о н/о +24.1 +12.8 49 +26 +26 жарко 1011.1 974.9
15 18.07 ЮЗ 2 н/о н/о +23.0 +14.6 59 +27 +27 душно 1011.2 974.9
16 18.07 Ю 1 н/о н/о +24.9 +11.6 43 +26 +26 жарко 1010.7 974.6
17 18.07 С 1 н/о н/о +24.0 +14.3 55 +27 +27 жарко 1011.0 974.8
18 18.07 С 1 23 км в посл. час ливневой дождь {гроза} 6/6 700 м
[Cu Sc]
+23.1 +15.2 61 +27 +27 душно 1011.4 975.1 +15.8 +25.6 0.0
19 18.07 С 3 н/о н/о +21.7 +11.7 53 +24 +24 комфорт 1011.8 975.3
20 18.07 ЮЗ 1 н/о н/о +21.4 +12.6 57 +24 +24 комфорт 1012.6 976.0
21 18.07 З 1 н/о н/о +21.2 +12.7 58 +23 +23 комфорт 1012.8 976.2
22 18.07 З 1 н/о н/о +19.9 +13.1 65 +23 +23 комфорт 1013.2 976.4
23 18.07 ЮЗ 1 н/о н/о +19.7 +11.5 59 +22 +22 комфорт 1013.3 976.5
00 19.07 З 2 н/о н/о +20.1 +12.2 60 +22 +22 комфорт 1013.3 976.5
01 19.07 З 1 н/о н/о +19.8 +11.4 58 +22 +22 комфорт 1013.3 976.5
02 19.07 СВ 2 н/о н/о +16.1 +12.6 80 +16 +16 1014.0 976.7
03 19.07 СВ 3 н/о н/о +16.4 +13.1 81 +16 +16 1014.0 976.8
04 19.07 С 5 н/о н/о +16.0 +12.9 82 +15 +15 1014.3 977.0
05 19.07 В 1 13 км 6/3 700 м
[Cu hum Ci sp]
+16.3 +13.5 83 +17 +18 1014.4 977.1
06 19.07 штиль 0 15 км 6/3 700 м
[Cu med, cong Ci sp]
+17.9 +13.6 76 +18 +22 1014.6 977.5 +15.4 +23.4
07 19.07 Ю 1 н/о н/о +19.1 +14.7 76 +22 +22 комфорт 1014.5 977.6 0.0
08 19.07 ЮВ 1 н/о н/о +21.2 +15.1 68 +24 +24 комфорт 1014.3 977.7
09 19.07 Ю 2 н/о н/о +23.9 +15.4 59 +27 +27 жарко 1014.0 977.7 0.0
10 19.07 Ю 1 н/о н/о +26.5 +14.9 49 +29 +29 жарко 1013.6 977.6
11 19.07 З 6 н/о н/о +25.0 +11.5 43 +26 +26 жарко 1013.7 977.5
12 19.07 З 6 25 км 8/8 960 м
[Cu Sc]
+26.1 +10.2 37 +27 +28 жарко 1013.7 977.6 0.0
13 19.07 ЮЗ 5 н/о н/о +27.4 +10.8 35 +28 +28 жарко 1013.3 977.4
14 19.07 З 5 н/о н/о +26.6 +10.9 37 +27 +27 жарко 1013.3 977.3
15 19.07 ЮЗ 4 н/о н/о +27.9 +11.9 37 +29 +29 жарко 1012.8 977.0
16 19.07 З 4 н/о н/о +27.2 +12.1 39 +28 +28 жарко 1013.2 977.3
17 19.07 С 4 н/о н/о +22.9 +13.8 56 +26 +26 жарко 1013.9 977.5
18 19.07 С 2 23 км 8/8 900 м
[Cu Sc]
+22.2 +13.6 58 +25 +25 комфорт 1014.6 978.1 +17.4 +28.4 0.0

 

Местоположение метеостанции Рец (Австрия): широта 48.77 долгота 15.95 высота над уровнем моря 323 м.

В архиве по умолчанию представлена погода в Реце за последнюю неделю. Архивные данные за месяц целиком и за предыдущие месяцы, начиная с января 2011 года, Вы можете получить, выбрав интересующий диапазон дат из раскрывающегося списка и нажав кнопку "Ввод!".


*Определитесь, кто Вы:
робот инопланетянин человек

Внимание! Время в таблицах - всемирное. Для получения местного времени необходимо прибавить поправку, которая равна 1 ч.

Смотрите также архив погоды в соседних городах и на ближайших метеорологических станциях:

Погода в Кучарловице (Чехия) (16 км)
Погода в Гарс-ам-Кампе (Австрия) (29 км)
Погода в Лейзер Берге (Австрия) (38 км)
Погода в Лангенлойсе (Австрия) (38 км)
Погода на АЭС Дукованы (Чехия) (39 км)
Погода в Аллентштайге (Австрия) (44 км)
Погода в Кремс-ан-дер-Донау (Австрия) (46 км)
Погода в Замке Namest nad Oslav (Чехия) (46 км)
Погода в Штоккерау (Австрия) (47 км)
Погода в Пойсдорфе (Австрия) (51 км)

Пояснения к столбцам:

Ветер - указаны скорость ветра в м/с - средняя за 10 мин, порывы в срок и между сроками (в фигурных скобках) и направление, откуда дует ветер: С - северный, СВ - северо-восточный, В - восточный, ЮВ - юго-восточный, Ю - южный, ЮЗ - юго-западный, З - западный, СЗ - северо-западный.
Видимость - горизонтальная дальность видимости в метрах или километрах. При видимости от 1 до 10 км при отсутствии осадков обычно наблюдается дымка, при ухудшении видимости до 1 км и менее - туман. В сухую погоду видимость может ухудшаться дымом, пылью или мглою.
Явления - указаны атмосферные явления, наблюдавшиеся в срок или в последний час перед сроком; фигурными скобками обозначены явления, наблюдавшиеся между сроками (за 1-3 часа до срока); квадратными скобками обозначены град или гололедные отложения с указанием их диаметра в мм.
Облачность - указаны через наклонную черту общая и нижняя облачность в баллах и высота нижней границы облаков в метрах; квадратными скобками обозначены формы облаков: Ci - перистые, Cs - перисто-слоистые, Cc - перисто-кучевые, Ac - высококучевые, As - высокослоистые, Sc - слоисто-кучевые, Ns - слоисто-дождевые, Cu - кучевые, Cb - кучево-дождевые. Подробнее классификацию облаков см. в Атласе облаков (PDF).
T - Температура воздуха - температура, измеренная на высоте 2 м над землей.
Td - Температура точки росы - температура, при понижении до которой содержащийся в воздухе водяной пар достигнет насыщения.
f - Относительная влажность воздуха - влажноcть воздуха, измеренная на высоте 2 м над землей.
Te - Эффективная температура - температура, которую ощущает одетый по сезону человек в тени. Характеристика душности погоды. При расчете учитывается влияние влажности воздуха и скорости ветра на теплоощущения человека.
Tes - Эффективная температура на солнце - температура, которую ощущает человек, с поправкой на солнечный нагрев. Характеристика знойности погоды. Зависит от высоты солнца над горизонтом, облачности и скорости ветра. Ночью, в пасмурную погоду, а также при ветре 12 м/с и более поправка равна нулю.
P - Атмосферное давление - приведенное к уровню моря атмосферное давление.
Po - Атмосферное давление - измеренное на уровне метеостанции атмосферное давление.
Tmin - Минимальная температура - минимум температуры воздуха на высоте 2 м над землей.
Tmax - Максимальная температура - максимум температуры воздуха на высоте 2 м над землей.
R - Количество осадков - Количество выпавших осадков за период времени, мм. При наведении курсора мыши на число - период времени, за который выпало указанное количество осадков.
R24 - Количество осадков - Количество выпавших осадков за 24 часа, мм.
S - Снежный покров - Высота снежного покрова, см. При наведении курсора мыши на число - состояние снежного покрова и степень покрытия местности в баллах.